Time,TemperatureF,DewpointF,PressureIn,WindDirection,WindDirectionDegrees,WindSpeedMPH,WindSpeedGustMPH,Humidity,HourlyPrecipIn,Conditions,Clouds,dailyrainin,SoftwareType,DateUTC
2013-06-22 11:02:00,84.0,71.0,-100.00,SSW,205,12.0,16.0,65,-99.99,,,-99.99,,2013-06-22 15:02:00,
2013-06-22 11:34:00,86.0,71.0,-100.00,South,185,10.0,16.0,62,-99.99,,,-99.99,,2013-06-22 15:34:00,
2013-06-22 11:43:00,85.0,71.0,-100.00,WSW,240,11.0,16.0,63,-99.99,,,-99.99,,2013-06-22 15:43:00,
2013-06-22 11:53:00,86.0,71.0,-100.00,SSW,205,9.0,17.0,60,-99.99,,,-99.99,,2013-06-22 15:53:00,
2013-06-22 12:02:00,86.0,71.0,-100.00,SSW,210,11.0,15.0,60,-99.99,,,-99.99,,2013-06-22 16:02:00,
2013-06-22 12:12:00,87.0,71.0,-100.00,SW,230,11.0,16.0,60,-99.99,,,-99.99,,2013-06-22 16:12:00,
2013-06-22 12:22:00,87.0,71.0,-100.00,SSW,210,12.0,16.0,58,-99.99,,,-99.99,,2013-06-22 16:22:00,
2013-06-22 12:34:00,88.0,71.0,-100.00,SSW,200,11.0,14.0,57,-99.99,,,-99.99,,2013-06-22 16:34:00,
2013-06-22 12:43:00,88.0,71.0,-100.00,SSW,195,12.0,16.0,57,-99.99,,,-99.99,,2013-06-22 16:43:00,
2013-06-22 12:52:00,87.0,70.0,-100.00,SSW,200,11.0,20.0,56,-99.99,,,-99.99,,2013-06-22 16:52:00,
2013-06-22 13:02:00,89.0,71.0,-100.00,South,175,10.0,16.0,55,-99.99,,,-99.99,,2013-06-22 17:02:00,
2013-06-22 13:11:00,89.0,70.0,-100.00,SSW,200,10.0,18.0,54,-99.99,,,-99.99,,2013-06-22 17:11:00,
2013-06-22 13:22:00,88.0,69.0,-100.00,SW,215,10.0,17.0,54,-99.99,,,-99.99,,2013-06-22 17:22:00,
2013-06-22 13:34:00,88.0,70.0,-100.00,South,190,12.0,15.0,55,-99.99,,,-99.99,,2013-06-22 17:34:00,
2013-06-22 13:43:00,88.0,69.0,-100.00,SSW,205,14.0,17.0,54,-99.99,,,-99.99,,2013-06-22 17:43:00,
2013-06-22 13:52:00,88.0,69.0,-100.00,SSW,195,9.0,17.0,53,-99.99,,,-99.99,,2013-06-22 17:52:00,
2013-06-22 14:02:00,88.0,69.0,-100.00,SSW,195,9.0,17.0,53,-99.99,,,-99.99,,2013-06-22 18:02:00,
2013-06-22 14:12:00,89.0,70.0,-100.00,SSW,210,13.0,16.0,52,-99.99,,,-99.99,,2013-06-22 18:12:00,
2013-06-22 14:23:00,90.0,69.0,-100.00,South,180,11.0,19.0,50,-99.99,,,-99.99,,2013-06-22 18:23:00,
2013-06-22 14:34:00,90.0,69.0,-100.00,South,185,9.0,18.0,51,-99.99,,,-99.99,,2013-06-22 18:34:00,
2013-06-22 14:43:00,90.0,69.0,-100.00,SSW,205,12.0,18.0,50,-99.99,,,-99.99,,2013-06-22 18:43:00,
2013-06-22 14:52:00,90.0,69.0,-100.00,SSW,200,9.0,16.0,50,-99.99,,,-99.99,,2013-06-22 18:52:00,
2013-06-22 15:01:00,91.0,70.0,-100.00,SSE,165,9.0,18.0,50,-99.99,,,-99.99,,2013-06-22 19:01:00,
2013-06-22 15:11:00,90.0,69.0,-100.00,SSW,200,12.0,21.0,49,-99.99,,,-99.99,,2013-06-22 19:11:00,
2013-06-22 15:22:00,91.0,69.0,-100.00,SW,220,11.0,18.0,48,-99.99,,,-99.99,,2013-06-22 19:22:00,
2013-06-22 15:33:00,91.0,69.0,-100.00,South,190,10.0,16.0,48,-99.99,,,-99.99,,2013-06-22 19:33:00,
2013-06-22 15:43:00,91.0,69.0,-100.00,South,190,10.0,17.0,47,-99.99,,,-99.99,,2013-06-22 19:43:00,
2013-06-22 15:53:00,91.0,69.0,-100.00,South,175,9.0,16.0,48,-99.99,,,-99.99,,2013-06-22 19:53:00,
2013-06-22 16:02:00,92.0,69.0,-100.00,South,170,12.0,17.0,47,-99.99,,,-99.99,,2013-06-22 20:02:00,
2013-06-22 16:11:00,93.0,69.0,-100.00,SSE,155,14.0,19.0,46,-99.99,,,-99.99,,2013-06-22 20:11:00,
2013-06-22 16:22:00,93.0,69.0,-100.00,SSE,155,12.0,17.0,46,-99.99,,,-99.99,,2013-06-22 20:22:00,
2013-06-22 16:33:00,92.0,68.0,-100.00,South,185,14.0,21.0,45,-99.99,,,-99.99,,2013-06-22 20:33:00,
2013-06-22 16:43:00,92.0,68.0,-100.00,South,185,11.0,17.0,45,-99.99,,,-99.99,,2013-06-22 20:43:00,
2013-06-22 16:53:00,92.0,67.0,-100.00,SSW,210,14.0,19.0,44,-99.99,,,-99.99,,2013-06-22 20:53:00,
2013-06-22 17:01:00,92.0,67.0,-100.00,South,190,16.0,22.0,44,-99.99,,,-99.99,,2013-06-22 21:01:00,
2013-06-22 17:11:00,92.0,67.0,-100.00,South,190,15.0,19.0,44,-99.99,,,-99.99,,2013-06-22 21:11:00,
2013-06-22 17:22:00,92.0,68.0,-100.00,South,175,13.0,19.0,45,-99.99,,,-99.99,,2013-06-22 21:22:00,
2013-06-22 17:34:00,92.0,67.0,-100.00,South,190,14.0,19.0,44,-99.99,,,-99.99,,2013-06-22 21:34:00,
2013-06-22 17:43:00,92.0,67.0,-100.00,SSE,165,12.0,17.0,44,-99.99,,,-99.99,,2013-06-22 21:43:00,
2013-06-22 17:53:00,90.0,69.0,-100.00,SSE,150,19.0,24.0,50,-99.99,,,-99.99,,2013-06-22 21:53:00,
2013-06-22 18:02:00,88.0,69.0,-100.00,SSE,150,18.0,24.0,53,-99.99,,,-99.99,,2013-06-22 22:02:00,
2013-06-22 18:12:00,89.0,70.0,-100.00,SSE,155,17.0,24.0,54,-99.99,,,-99.99,,2013-06-22 22:12:00,
2013-06-22 18:23:00,89.0,70.0,-100.00,SSE,155,17.0,24.0,54,-99.99,,,-99.99,,2013-06-22 22:23:00,
2013-06-22 18:33:00,89.0,70.0,-100.00,SSE,160,14.0,19.0,54,-99.99,,,-99.99,,2013-06-22 22:33:00,
2013-06-22 18:43:00,89.0,69.0,-100.00,SSE,165,15.0,20.0,53,-99.99,,,-99.99,,2013-06-22 22:43:00,
2013-06-22 18:52:00,89.0,70.0,-100.00,SE,140,13.0,21.0,53,-99.99,,,-99.99,,2013-06-22 22:52:00,
2013-06-22 19:01:00,89.0,69.0,-100.00,SSE,155,14.0,19.0,52,-99.99,,,-99.99,,2013-06-22 23:01:00,
2013-06-22 19:11:00,89.0,69.0,-100.00,SSE,160,13.0,21.0,51,-99.99,,,-99.99,,2013-06-22 23:11:00,
2013-06-22 19:22:00,89.0,69.0,-100.00,SSE,165,13.0,17.0,51,-99.99,,,-99.99,,2013-06-22 23:22:00,
2013-06-22 19:34:00,88.0,69.0,-100.00,SSE,155,15.0,22.0,52,-99.99,,,-99.99,,2013-06-22 23:34:00,
2013-06-22 19:43:00,88.0,69.0,-100.00,SSE,160,14.0,18.0,53,-99.99,,,-99.99,,2013-06-22 23:43:00,
2013-06-22 19:52:00,88.0,69.0,-100.00,South,180,12.0,18.0,54,-99.99,,,-99.99,,2013-06-22 23:52:00,
2013-06-22 20:01:00,87.0,69.0,-100.00,SSE,160,12.0,16.0,54,-99.99,,,-99.99,,2013-06-23 00:01:00,
2013-06-22 20:11:00,87.0,69.0,-100.00,SSE,165,10.0,16.0,55,-99.99,,,-99.99,,2013-06-23 00:11:00,
2013-06-22 20:22:00,85.0,68.0,-100.00,SSE,165,11.0,16.0,56,-99.99,,,-99.99,,2013-06-23 00:22:00,
2013-06-22 20:33:00,84.0,67.0,-100.00,NW,320,12.0,18.0,58,-99.99,,,-99.99,,2013-06-23 00:33:00,
2013-06-22 20:42:00,81.0,65.0,-100.00,WNW,285,6.0,17.0,59,-99.99,,,-99.99,,2013-06-23 00:42:00,
2013-06-22 20:53:00,78.0,63.0,-100.00,WNW,290,12.0,19.0,59,-99.99,,,-99.99,,2013-06-23 00:53:00,
2013-06-22 21:01:00,77.0,64.0,-100.00,West,280,12.0,21.0,64,-99.99,,,-99.99,,2013-06-23 01:01:00,
2013-06-22 21:11:00,77.0,66.0,-100.00,SW,220,9.0,25.0,68,-99.99,,,-99.99,,2013-06-23 01:11:00,
2013-06-22 21:22:00,77.0,67.0,-100.00,WSW,245,5.0,14.0,70,-99.99,,,-99.99,,2013-06-23 01:22:00,
2013-06-22 21:32:00,77.0,67.0,-100.00,SSW,205,4.0,7.0,70,-99.99,,,-99.99,,2013-06-23 01:32:00,
2013-06-22 21:42:00,77.0,67.0,-100.00,SSW,205,4.0,7.0,70,-99.99,,,-99.99,,2013-06-23 01:42:00,
2013-06-22 21:52:00,75.0,66.0,-100.00,West,260,15.0,24.0,71,-99.99,,,-99.99,,2013-06-23 01:52:00,
2013-06-22 22:01:00,74.0,64.0,-100.00,SW,235,13.0,23.0,70,-99.99,,,-99.99,,2013-06-23 02:01:00,
2013-06-22 22:11:00,75.0,62.0,-100.00,SW,230,12.0,18.0,64,-99.99,,,-99.99,,2013-06-23 02:11:00,
2013-06-22 22:21:00,76.0,62.0,-100.00,SW,235,12.0,20.0,61,-99.99,,,-99.99,,2013-06-23 02:21:00,
2013-06-22 22:31:00,79.0,62.0,-100.00,SW,235,12.0,24.0,55,-99.99,,,-99.99,,2013-06-23 02:31:00,
2013-06-22 22:41:00,80.0,62.0,-100.00,SW,230,16.0,26.0,53,-99.99,,,-99.99,,2013-06-23 02:41:00,
2013-06-22 22:52:00,81.0,62.0,-100.00,SSW,210,15.0,20.0,53,-99.99,,,-99.99,,2013-06-23 02:52:00,
2013-06-22 23:01:00,81.0,65.0,-100.00,SW,215,12.0,17.0,59,-99.99,,,-99.99,,2013-06-23 03:01:00,
2013-06-22 23:11:00,79.0,69.0,-100.00,SSW,210,12.0,19.0,70,-99.99,,,-99.99,,2013-06-23 03:11:00,
2013-06-22 23:21:00,78.0,70.0,-100.00,SSW,210,9.0,14.0,75,-99.99,,,-99.99,,2013-06-23 03:21:00,
2013-06-22 23:31:00,77.0,70.0,-100.00,SSW,205,8.0,10.0,79,-99.99,,,-99.99,,2013-06-23 03:31:00,
2013-06-22 23:41:00,77.0,71.0,-100.00,SSW,210,7.0,10.0,80,-99.99,,,-99.99,,2013-06-23 03:41:00,
2013-06-22 23:51:00,77.0,71.0,-100.00,South,185,6.0,10.0,80,-99.99,,,-99.99,,2013-06-23 03:51:00,